Location: Unspecified
(0.0000°N, 0.0000°E)
Time: 21:33:09
(UTC+02:00)

ARIANE DEB (SPELDA) - Visible Passes

Search period start: 29 March 2015 00:00
Search period end: 08 April 2015 01:00
Orbit: 330 x 33213 km, 3.3° (Epoch: 29 March)

Date Brightness Start Highest point End Pass type
(mag) Time Alt. Az. Time Alt. Az. Time Alt. Az.
29 Mar 7.0 04:54:20 55° W 13:15:46 84° S 13:28:08 10° E visible
29 Mar 5.7 23:33:38 10° W 00:23:03 29° E 08:32:58 10° E visible
31 Mar 6.4 05:36:07 40° W 14:02:34 81° S 14:11:15 10° E visible
01 Apr 6.6 00:16:40 10° W 01:04:44 43° E 09:20:26 10° E visible
02 Apr 5.9 06:17:38 27° W 14:47:44 77° S 14:53:58 10° E visible
03 Apr 7.1 01:46:10 58° E 01:46:10 58° E 10:06:03 10° E visible
03 Apr 2.3 20:16:14 10° W 20:18:38 81° S 20:25:29 10° E visible
03 Apr 2.3 20:16:15 10° W 20:18:39 81° S 20:25:29 10° E visible
04 Apr 5.3 06:58:54 14° W 15:31:47 73° S 15:36:22 10° E visible
05 Apr 8.7 02:27:20 74° ENE 02:27:20 74° ENE 10:50:23 10° E visible
05 Apr 3.1 20:58:31 10° W 21:01:35 89° N 21:08:58 19° E visible
05 Apr 3.1 20:58:31 10° W 21:01:35 89° N 21:08:51 19° E visible
07 Apr 8.1 03:08:14 85° N 03:09:26 85° N 11:33:49 10° E visible
07 Apr 4.0 21:40:29 10° W 21:44:37 85° N 21:49:55 37° E visible
07 Apr 4.0 21:40:29 10° W 21:44:37 85° N 21:49:52 38° E visible
07 Apr 4.0 21:40:29 10° W 21:44:37 85° N 21:49:54 37° E visible
07 Apr 4.0 21:40:29 10° W 21:44:37 85° N 21:49:53 38° E visible
07 Apr 4.0 21:40:29 10° W 21:44:37 85° N 21:49:53 37° E visible
07 Apr 4.0 21:40:29 10° W 21:44:37 85° N 21:49:51 38° E visible
07 Apr 4.0 21:40:30 10° W 21:44:37 85° N 21:49:52 38° E visible
07 Apr 4.0 21:40:30 10° W 21:44:37 85° N 21:49:53 38° E visible
07 Apr 4.0 21:40:30 10° W 21:44:37 85° N 21:49:50 38° E visible
07 Apr 4.0 21:40:30 10° W 21:44:37 85° N 21:49:54 37° E visible
07 Apr 4.0 21:40:30 10° W 21:44:37 85° N 21:49:55 37° E visible
